This is the latest recevied weather packets stored in our database for station/object W0VI. If no packets are shown the sender has not sent any weather packets the latest 10 day(s).
| Time | Temp. | Humidity | Pressure | Rain* | Wind** | Luminosity | Snow |
|---|---|---|---|---|---|---|---|
| 1777386607 | 7.78° C | 65% | 1015.2 hPa | 0 mm | - | 452 W/m² | - |
| 1777386304 | 7.22° C | 66% | 1015.1 hPa | 0 mm | - | 405 W/m² | - |
| 1777385996 | 7.22° C | 67% | 1015 hPa | 0 mm | - | 387 W/m² | - |
| 1777385692 | 6.67° C | 67% | 1014.8 hPa | 0 mm | - | 363 W/m² | - |
| 1777385389 | 6.67° C | 67% | 1015.1 hPa | 0 mm | - | 353 W/m² | - |
| 1777385086 | 6.67° C | 67% | 1014.8 hPa | 0 mm | - | 350 W/m² | - |
| 1777384782 | 6.67° C | 68% | 1014.7 hPa | 0 mm | - | 327 W/m² | - |
| 1777384478 | 6.11° C | 69% | 1014.8 hPa | 0 mm | - | 281 W/m² | - |
| 1777384173 | 6.11° C | 68% | 1014.6 hPa | 0 mm | - | 278 W/m² | - |
| 1777383870 | 6.11° C | 68% | 1014.8 hPa | 0 mm | - | 279 W/m² | - |
| 1777383566 | 6.11° C | 69% | 1014.6 hPa | 0 mm | - | 282 W/m² | - |
| 1777383263 | 6.11° C | 69% | 1014.5 hPa | 0 mm | - | 237 W/m² | - |
| 1777382958 | 5.56° C | 70% | 1014.4 hPa | 0 mm | - | 234 W/m² | - |
| 1777382654 | 5.56° C | 70% | 1014.5 hPa | 0 mm | - | 229 W/m² | - |
| 1777382350 | 5.56° C | 71% | 1014.5 hPa | 0 mm | - | 221 W/m² | - |
| 1777382046 | 5.56° C | 72% | 1014 hPa | 0 mm | - | 184 W/m² | - |
| 1777381742 | 5.56° C | 72% | 1014 hPa | 0 mm | - | 192 W/m² | - |
| 1777381436 | 5° C | 73% | 1014 hPa | 0 mm | - | 177 W/m² | - |
| 1777381133 | 5° C | 74% | 1013.9 hPa | 0 mm | - | 50 W/m² | - |
| 1777380830 | 5° C | 74% | 1013.8 hPa | 0 mm | - | 48 W/m² | - |
| 1777380528 | 5° C | 74% | 1013.6 hPa | 0 mm | - | 50 W/m² | - |
| 1777380224 | 5° C | 75% | 1013.4 hPa | 0 mm | - | 80 W/m² | - |
| 1777379921 | 5° C | 76% | 1013.4 hPa | 0 mm | - | 83 W/m² | - |
| 1777379616 | 4.44° C | 76% | 1013.6 hPa | 0 mm | - | 98 W/m² | - |
| 1777379312 | 4.44° C | 76% | 1013.6 hPa | 0 mm | - | 57 W/m² | - |
* Rain latest hour (hover to see other rain measurements)
** Current wind speed in m/s (hover to see current wind gust speed)